AKARI (ASTRO-F) (28939 NORAD) Tracking and Keplerian Element Data

This shows tracking and keplerian element data for the satellite.

Feedback or suggestion? Click here.




ElementValue
Catalog28939
NameAKARI (ASTRO-F)
Epoch Orbit69709
Epoch Day352.3108828
Epoch Year2018
RAAN256.954
Inclination98.1917
Eccentricity0.0100965
Argument of Perigee76.1847
Mean Anonmoly285.0602
Mean Motion15.31640332
Decay Rate1.716E-05
L11 28939U 06005A 18352.31088280 .00001716 00000-0 50909-4 0 9993
L22 28939 98.1917 256.9540 0100965 76.1847 285.0602 15.31640332697095

Live tracking and technical data element details for AKARI (ASTRO-F) (NORAD 28939). AKARI (ASTRO-F) can be tracked NOW for your location showing map with azimuth and elevation plus other details from your city location.

Track the satellite on the map from your city or location and see movement details for azimuth, elevation, latitude, longitude, range, height, and movement on the map or in text.







IsCatalogInMostPopularTable: catalog: 28939, numindb: 40
Update: records affected: 1



GetName: 28939 AKARI (ASTRO-F)

Hit Count: updated at: Wed, 19 Dec 2018 15:13:51 GMT